Regional Weather Roundup
Issued by NWS

Home | Current Version | Previous Version | Text Only | Print | Product List | Glossary Off
Versions: 1 2 3 4 5 6 7 8 9 10 11 12 13 14 15 16 17 18 19 20 21 22 23 24 25 26 27 28 29 30 31 32 33 34 35 36 37 38 39 40 41 42 43 44 45 46 47 48 49 50

000
ASUS43 KBIS 261320
RWRND

NORTH DAKOTA REGIONAL WEATHER ROUNDUP
NATIONAL WEATHER SERVICE BISMARCK ND
700 AM CST FRI DEC 26 2014

NOTE: "FAIR" INDICATES FEW OR NO CLOUDS BELOW 12,000 FEET WITH NO
SIGNIFICANT WEATHER AND/OR OBSTRUCTIONS TO VISIBILITY.


NDZ001>003-009>011-017-261400-
NORTHWEST NORTH DAKOTA

CITY           SKY/WX    TMP DP  RH WIND       PRES   REMARKS
WILLISTON      CLOUDY    12   9  87 N3        30.14R
MINOT          CLOUDY     7   2  80 E5        30.15R WCI  -2
MINOT AFB      CLOUDY     5   3  92 NE3       30.16R
$$

NDZ018>021-031>035-040>046-261400-
SOUTHWEST NORTH DAKOTA

CITY           SKY/WX    TMP DP  RH WIND       PRES   REMARKS
BISMARCK       CLOUDY    14   7  73 N12       30.16R WCI   0
DICKINSON      CLOUDY    17  12  80 NW3       30.07R
GARRISON         N/A     13   8  81 NW8       30.13R WCI   2
HETTINGER ARPT CLOUDY    16  10  77 NW14      30.10R WCI   2
$$

NDZ004>008-012>016-024-026-027-054-261400-
NORTHEAST NORTH DAKOTA

CITY           SKY/WX    TMP DP  RH WIND       PRES   REMARKS
GRAND FORKS    CLOUDY    24  18  77 N8        30.12R WCI  15
GRND FRKS AFB  CLOUDY    23  19  85 N8        30.12R WCI  14
DEVILS LAKE    CLOUDY    16   9  73 NW16      30.12R WCI   0
$$

NDZ022-023-025-028>030-036>039-047>053-261400-
SOUTHEAST NORTH DAKOTA

CITY           SKY/WX    TMP DP  RH WIND       PRES   REMARKS
FARGO          CLOUDY    24  19  81 N12       30.10R WCI  13
JAMESTOWN      CLOUDY    21  17  84 N12       30.11R WCI   9
$$




USA.gov is the U.S. government's official web portal to all federal, state and local government web resources and services.